Hourly Data Report for May 07, 2018

DRYDEN REGIONAL
ONTARIO
Current Station Operator: NAVCAN

49°49'39.000" N
92°44'39.000" W
412.70 m
6032125
71527
YHD

Download Data

Hourly Data (May 2018)
Hourly Data Report for May 7, 2018
TIME
LST
Temp Definition
°C
Dew Point Definition
°C
Rel Hum Definition
%
Precip. Amount Definition
mm

Wind Dir Definition
10's deg

Wind Spd Definition
km/h
Visibility Definition
km
Stn Press Definition
kPa
Hmdx Definition


Wind Chill Definition


Weather Definition


00:00 8.8 0.1 54 0.0 20 15 16.1 96.85     LegendNANA
01:00 8.4 -0.1 55 0.0 20 15 16.1 96.83     LegendNANA
02:00 7.9 -0.1 57 0.0 20 18 16.1 96.79     LegendNANA
03:00 7.4 -0.1 59 0.0 20 22 16.1 96.77     LegendNANA
04:00 6.9 0.1 62 0.0 20 18 16.1 96.74     LegendNANA
05:00 6.6 0.3 64 0.0 21 11 16.1 96.73     LegendNANA
06:00 8.2 1.0 60 0.0 22 13 16.1 96.74     LegendNANA
07:00 12.2 2.3 51 0.0 22 15 16.1 96.70     LegendNANA
08:00 16.1 2.5 40 0.0 22 17 16.1 96.66     LegendNANA
09:00 19.6 1.9 31 0.0 23 30 16.1 96.65     LegendNANA
10:00 20.5 1.8 29 0.0 25 30 16.1 96.61     LegendNANA
11:00 22.7 1.4 24 0.0 25 24 16.1 96.55     LegendNANA
12:00 24.4 0.7 21 0.0 26 34 16.1 96.48     LegendNANA
13:00 25.7 0.0 18 0.0 25 30 16.1 96.43     LegendNANA
14:00 25.8 0.0 18 0.0 24 34 16.1 96.36     LegendNANA
15:00 26.5 0.7 18 0.0 24 34 16.1 96.32 25   LegendNANA
16:00 26.6 0.8 18 0.0 22 22 16.1 96.29 25   LegendNANA
17:00 26.9 0.8 18 0.0 26 24 16.1 96.25 25   LegendNANA
18:00 26.4 1.5 19 0.0 26 17 16.1 96.23 25   LegendNANA
19:00 24.7 1.1 21 0.0 26 13 16.1 96.25     LegendNANA
20:00 22.1 1.9 26 0.0 22 11 16.1 96.29     LegendNANA
21:00 21.9 1.7 26 0.0 29 8 16.1 96.37     LegendNANA
22:00 21.1 1.6 27 0.0 1 17 16.1 96.44     LegendNANA
23:00 16.9 2.6 38 0.0 4 35 16.1 96.53     LegendNANA

Notes on Data Quality.

Legend

  • E = Estimated
  • M = Missing
  • NA = Not Available*
  • [empty] = Indicates an unobserved value
Date modified: